Weather History for KAFK - January, 2014

Change the Weather History Date:

Saturday, January 11, 2014

  Actual Average (KSDA) Record (KSDA)
Temperature  
Mean Temperature 36 °F -  
Max Temperature 45 °F 28 °F 60 °F (1986)
Min Temperature 27 °F 10 °F -11 °F (1977)
Degree Days  
Heating Degree Days 29    
Moisture  
Dew Point 29 °F    
Average Humidity 80    
Maximum Humidity 100    
Minimum Humidity 55    
Precipitation  
Precipitation 0.00 in - - ()
Sea Level Pressure  
Sea Level Pressure 29.75 in    
Wind  
Wind Speed 12 mph (West)    
Max Wind Speed 20 mph    
Max Gust Speed 25 mph    
Visibility 9 miles    
Events Fog    
Averages and records for this station are not official NWS values.
T = Trace of Precipitation, MM = Missing Value Source: NWS Daily Summary

Daily Weather History Graph

Daily Weather History Graph

Search for Another Location

Airport or City:

Trip Planner

Search our weather history database for the weather conditions in past years. The results will help you decide how hot, cold, wet, or windy it might be!

Date:

Astronomy

Jan. 11, 2014 Rise Set
Actual Time 7:46 AM CST 5:16 PM CST
Civil Twilight 7:16 AM CST 5:47 PM CST
Nautical Twilight 6:42 AM CST 6:20 PM CST
Astronomical Twilight 6:09 AM CST 6:53 PM CST
Moon 2:01 PM CST (1/11) 3:51 AM CST (1/11)
Length of Visible Light 10h 30m
Length of Day
9h 30m
Waxing Gibbous, 83% of the Moon is Illuminated
Jan 11
Waxing Gibbous
Jan 15
Full
Jan 23
Last Quarter
Jan 30
New
Feb 6
First Quarter

Hourly Weather History & Observations

Time (CST) Temp. Windchill Dew Point Humidity Pressure Visibility Wind Dir Wind Speed Gust Speed Precip Events Conditions
12:15 AM 29.3 °F 20.2 °F 29.3 °F 100% 29.62 in 0.2 mi West 10.4 mph - N/A Fog Light Freezing Fog
12:35 AM 28.6 °F 19.3 °F 28.6 °F 100% 29.63 in 1.8 mi WNW 10.4 mph - N/A   Mostly Cloudy
12:55 AM 27.9 °F 19.1 °F 27.9 °F 100% 29.63 in 2.5 mi West 9.2 mph - N/A   Clear
1:15 AM 27.5 °F 20.2 °F 27.5 °F 100% 29.63 in 4.0 mi West 6.9 mph - N/A   Clear
1:35 AM 27.5 °F 19.3 °F 27.5 °F 100% 29.63 in 5.0 mi West 8.1 mph - N/A   Clear
1:55 AM 27.3 °F 17.7 °F 27.3 °F 100% 29.64 in 5.0 mi West 10.4 mph - N/A   Clear
2:15 AM 27.7 °F 18.2 °F 27.7 °F 100% 29.65 in 7.0 mi West 10.4 mph - N/A   Clear
2:35 AM 28.6 °F 18.7 °F 28.6 °F 100% 29.65 in 7.0 mi West 11.5 mph - N/A   Clear
2:55 AM 28.0 °F 18.1 °F 28.0 °F 100% 29.65 in 7.0 mi West 11.5 mph - N/A   Clear
3:15 AM 28.2 °F 19.5 °F 27.5 °F 97% 29.65 in 10.0 mi West 9.2 mph - N/A   Clear
3:35 AM 28.0 °F 18.1 °F 27.1 °F 96% 29.65 in 10.0 mi West 11.5 mph - N/A   Clear
3:55 AM 28.0 °F 18.1 °F 27.1 °F 96% 29.66 in 10.0 mi West 11.5 mph - N/A   Clear
4:15 AM 27.9 °F 17.8 °F 27.0 °F 96% 29.66 in 10.0 mi West 11.5 mph - N/A   Clear
4:35 AM 28.4 °F 18.5 °F 27.3 °F 96% 29.66 in 10.0 mi West 11.5 mph - N/A   Mostly Cloudy
4:55 AM 29.3 °F 19.1 °F 27.5 °F 93% 29.67 in 10.0 mi West 12.7 mph - N/A   Overcast
5:15 AM 29.8 °F 19.8 °F 27.3 °F 90% 29.67 in 10.0 mi West 12.7 mph - N/A   Overcast
5:35 AM 27.5 °F 16.8 °F 26.6 °F 96% 29.68 in 10.0 mi WSW 12.7 mph - N/A   Mostly Cloudy
5:55 AM 28.0 °F 18.1 °F 27.0 °F 96% 29.68 in 10.0 mi WSW 11.5 mph - N/A   Mostly Cloudy
6:15 AM 28.4 °F 17.5 °F 26.6 °F 93% 29.69 in 10.0 mi West 13.8 mph - N/A   Mostly Cloudy
6:35 AM 28.9 °F 18.2 °F 27.3 °F 94% 29.69 in 10.0 mi West 13.8 mph - N/A   Overcast
6:55 AM 30.0 °F 20.0 °F 27.0 °F 88% 29.70 in 10.0 mi West 12.7 mph - N/A   Mostly Cloudy
7:15 AM 31.1 °F 20.5 °F 27.5 °F 87% 29.70 in 10.0 mi WNW 15.0 mph - N/A   Mostly Cloudy
7:35 AM 31.1 °F 20.9 °F 27.3 °F 86% 29.71 in 10.0 mi West 13.8 mph - N/A   Scattered Clouds
7:55 AM 30.6 °F 20.7 °F 27.3 °F 88% 29.72 in 10.0 mi WNW 12.7 mph - N/A   Clear
8:15 AM 31.3 °F 20.7 °F 27.3 °F 85% 29.72 in 10.0 mi WNW 15.0 mph - N/A   Clear
8:35 AM 32.0 °F 21.2 °F 27.3 °F 83% 29.73 in 10.0 mi WNW 16.1 mph 19.6 mph N/A   Clear
8:55 AM 32.0 °F 21.6 °F 27.9 °F 85% 29.74 in 10.0 mi WNW 15.0 mph - N/A   Clear
9:15 AM 33.1 °F 22.2 °F 29.3 °F 86% 29.75 in 10.0 mi WNW 17.3 mph - N/A   Clear
9:35 AM 34.3 °F 24.6 °F 30.2 °F 85% 29.76 in 10.0 mi WNW 15.0 mph - N/A   Clear
9:55 AM 36.1 °F 26.9 °F 31.1 °F 82% 29.78 in 10.0 mi NW 15.0 mph 21.9 mph N/A   Clear
10:15 AM 36.7 °F 28.0 °F 30.9 °F 80% 29.79 in 10.0 mi NW 13.8 mph - N/A   Clear
10:35 AM 37.4 °F 27.8 °F 31.3 °F 79% 29.79 in 10.0 mi NW 17.3 mph 21.9 mph N/A   Clear
10:55 AM 37.4 °F 27.5 °F 30.4 °F 76% 29.80 in 10.0 mi NW 18.4 mph 23.0 mph N/A   Clear
11:15 AM 38.1 °F 28.8 °F 30.9 °F 75% 29.80 in 10.0 mi NW 17.3 mph 20.7 mph N/A   Clear
11:35 AM 38.5 °F 28.6 °F 30.7 °F 74% 29.80 in 10.0 mi NW 19.6 mph 25.3 mph N/A   Clear
11:55 AM 39.2 °F 30.5 °F 30.9 °F 72% 29.80 in 10.0 mi NW 16.1 mph 20.7 mph N/A   Clear
12:15 PM 40.1 °F 32.4 °F 32.0 °F 73% 29.79 in 10.0 mi NW 13.8 mph 19.6 mph N/A   Clear
12:35 PM 40.6 °F 32.7 °F 31.8 °F 71% 29.79 in 10.0 mi NW 15.0 mph 23.0 mph N/A   Clear
12:55 PM 41.4 °F 34.3 °F 32.0 °F 69% 29.79 in 10.0 mi NW 12.7 mph 19.6 mph N/A   Clear
1:15 PM 41.9 °F 34.6 °F 31.6 °F 67% 29.79 in 10.0 mi NW 13.8 mph 21.9 mph N/A   Clear
1:35 PM 42.8 °F 35.4 °F 31.8 °F 65% 29.80 in 10.0 mi NW 15.0 mph 21.9 mph N/A   Clear
1:55 PM 43.2 °F 35.9 °F 31.6 °F 64% 29.80 in 10.0 mi NW 15.0 mph - N/A   Clear
2:15 PM 43.9 °F 36.8 °F 31.8 °F 63% 29.80 in 10.0 mi NW 15.0 mph 18.4 mph N/A   Clear
2:35 PM 44.6 °F 38.1 °F 31.8 °F 61% 29.80 in 10.0 mi NW 13.8 mph - N/A   Clear
2:55 PM 44.8 °F 39.0 °F 31.6 °F 60% 29.81 in 10.0 mi NW 11.5 mph - N/A   Clear
3:15 PM 45.0 °F 38.5 °F 31.3 °F 59% 29.81 in 10.0 mi NW 13.8 mph - N/A   Clear
3:35 PM 45.5 °F 39.6 °F 30.2 °F 55% 29.82 in 10.0 mi NW 12.7 mph - N/A   Clear
3:55 PM 45.1 °F 39.5 °F 30.9 °F 58% 29.83 in 10.0 mi West 11.5 mph - N/A   Clear
4:15 PM 44.6 °F 39.2 °F 30.9 °F 59% 29.83 in 10.0 mi West 10.4 mph - N/A   Clear
4:35 PM 43.5 °F 40.1 °F 30.6 °F 60% 29.83 in 10.0 mi West 5.8 mph - N/A   Clear
4:55 PM 41.5 °F 37.8 °F 30.0 °F 64% 29.83 in 10.0 mi West 5.8 mph - N/A   Clear
5:15 PM 40.1 °F 35.3 °F 29.1 °F 65% 29.82 in 10.0 mi WSW 6.9 mph - N/A   Clear
5:35 PM 37.8 °F 31.8 °F 29.3 °F 72% 29.82 in 10.0 mi WSW 8.1 mph - N/A   Clear
5:55 PM 36.9 °F 30.7 °F 28.9 °F 73% 29.82 in 10.0 mi WSW 8.1 mph - N/A   Clear
6:15 PM 36.9 °F 30.7 °F 28.4 °F 71% 29.83 in 10.0 mi SW 8.1 mph - N/A   Clear
6:35 PM 37.4 °F 31.4 °F 27.9 °F 68% 29.82 in 10.0 mi SW 8.1 mph - N/A   Clear
6:55 PM 37.4 °F 31.4 °F 27.9 °F 68% 29.82 in 10.0 mi SW 8.1 mph - N/A   Clear
7:15 PM 36.3 °F 28.9 °F 28.4 °F 73% 29.83 in 10.0 mi SW 10.4 mph - N/A   Clear
7:35 PM 35.2 °F 28.1 °F 28.4 °F 76% 29.83 in 10.0 mi SW 9.2 mph - N/A   Clear
7:55 PM 35.1 °F 27.9 °F 28.9 °F 78% 29.83 in 10.0 mi SW 9.2 mph - N/A   Clear
8:15 PM 35.1 °F 27.9 °F 28.4 °F 77% 29.83 in 10.0 mi SW 9.2 mph - N/A   Clear
8:35 PM 35.2 °F 27.6 °F 28.4 °F 76% 29.82 in 10.0 mi SW 10.4 mph - N/A   Clear
8:55 PM 34.2 °F 28.2 °F 27.7 °F 77% 29.81 in 10.0 mi SSW 6.9 mph - N/A   Clear
9:15 PM 34.0 °F 26.6 °F 27.7 °F 78% 29.81 in 10.0 mi SSW 9.2 mph - N/A   Clear
9:35 PM 33.3 °F 25.7 °F 27.5 °F 79% 29.80 in 10.0 mi SSW 9.2 mph - N/A   Clear
9:55 PM 32.9 °F 25.3 °F 27.5 °F 81% 29.80 in 10.0 mi South 9.2 mph - N/A   Clear
10:15 PM 34.0 °F 26.0 °F 28.2 °F 79% 29.80 in 10.0 mi South 10.4 mph - N/A   Clear
10:35 PM 34.2 °F 26.8 °F 28.4 °F 79% 29.80 in 10.0 mi SSW 9.2 mph - N/A   Clear
10:55 PM 33.8 °F 25.8 °F 28.8 °F 82% 29.80 in 10.0 mi SSW 10.4 mph - N/A   Clear
11:15 PM 35.1 °F 26.4 °F 29.3 °F 80% 29.78 in 10.0 mi SSW 12.7 mph - N/A   Clear
11:35 PM 35.1 °F 25.9 °F 29.3 °F 80% 29.77 in 10.0 mi SSW 13.8 mph - N/A   Clear
11:55 PM 35.4 °F 25.3 °F 29.3 °F 78% 29.75 in 10.0 mi SSW 17.3 mph - N/A   Clear